CW9485 Weather Reports


Display with metric or nautical units.
time (UTC)temp
F
wind
direction
speed
MPH
gust
MPH
rain 1hr
in
rain 24hr
in
rain mn
in
humidity
%
barometer
mb
20260504110511 0 0.0 0.0 0.00 0.00 0.00 993.3
20260504100218 0 0.0 0.0 0.00 0.00 0.00 993.4
20260504081511 0 0.0 0.0 0.00 0.00 0.00 993.7
20260504081003 0 0.0 0.0 0.00 0.00 0.00 993.6
20260504080413 45 0.0 0.0 0.00 0.00 0.00 73 993.6
20260504070237 44 231 0.0 0.0 0.00 0.00 0.00 74 993.7
20260504060211 43 231 0.0 0.0 0.00 0.00 0.00 76 994.1
20260504050705 44 231 0.0 0.0 0.00 0.00 0.00 69 994.3
20260504050207 44 231 0.0 0.0 0.00 0.00 0.00 70 994.3
20260504045203 44 231 0.0 0.0 0.00 0.00 0.00 70 994.4
20260504044706 44 232 0.0 0.0 0.00 0.00 0.00 69 994.4
20260504043702 44 231 0.0 0.0 0.00 0.00 0.00 67 994.5
20260504043202 45 231 0.0 0.0 0.00 0.00 0.00 66 994.5
20260504042703 45 231 0.0 0.0 0.00 0.00 0.00 68 994.4
20260504042202 45 232 0.0 0.0 0.00 0.00 0.00 67 994.4
20260504041701 45 232 0.0 0.0 0.00 0.00 0.00 67 994.4
20260504041202 45 231 0.0 0.0 0.00 0.00 0.00 66 994.4
20260504040201 46 231 0.0 0.0 0.00 0.00 0.00 66 994.4
20260504035701 46 231 0.0 0.0 0.00 0.00 0.00 65 994.3
20260504035202 46 232 0.0 0.0 0.00 0.00 0.00 64 994.3
20260504034702 46 232 0.0 0.0 0.00 0.00 0.00 63 994.2
20260504034201 46 232 0.0 0.0 0.00 0.00 0.00 64 994.1
20260504033201 46 231 0.0 0.0 0.00 0.00 0.00 63 994.2
20260504031703 47 232 0.0 0.0 0.00 0.00 0.00 64 994.1
20260504031203 47 232 0.0 0.0 0.00 0.00 0.00 64 994.1
20260504030703 47 231 0.0 0.0 0.00 0.00 0.00 65 994.1
20260504025658 48 232 0.0 0.0 0.00 0.00 0.00 65 994.1
20260504025152 48 231 0.0 0.0 0.00 0.00 0.00 65 994.0
20260504024646 48 232 0.0 0.0 0.00 0.00 0.00 64 994.0
20260504024140 48 232 0.0 0.0 0.00 0.00 0.00 63 993.9
20260504022621 49 232 0.0 0.0 0.00 0.00 0.00 60 993.8
20260504022116 49 231 0.0 0.0 0.00 0.00 0.00 59 993.7
20260504021609 49 231 0.0 0.0 0.00 0.00 0.00 58 993.7
20260504021106 49 232 0.0 0.0 0.00 0.00 0.00 55 993.6
20260504015606 50 231 0.0 0.0 0.00 0.00 0.00 54 993.6
20260504014105 51 232 0.0 0.0 0.00 0.00 0.00 52 993.5
20260504013604 51 232 0.0 0.0 0.00 0.00 0.00 52 993.5
20260504013104 51 231 0.0 0.0 0.00 0.00 0.00 53 993.5
20260504012602 52 231 0.0 0.0 0.00 0.00 0.00 52 993.5
20260504012101 52 232 0.0 0.0 0.00 0.00 0.00 50 993.4
20260504011601 52 231 0.0 0.0 0.00 0.00 0.00 47 993.3
20260504011102 52 231 0.0 0.0 0.00 0.00 0.00 47 993.3
20260504005603 53 232 0.0 0.0 0.00 0.00 0.00 46 993.3
20260504005057 54 232 0.0 0.0 0.00 0.00 0.00 45 993.2
20260504004052 55 232 0.0 0.0 0.00 0.00 0.00 44 993.2
20260504003551 55 232 0.0 0.0 0.00 0.00 0.00 44 993.2
20260504002552 56 232 0.0 0.0 0.00 0.00 0.00 40 993.2
20260504002050 56 232 0.0 0.0 0.00 0.00 0.00 40 993.1
20260504001550 57 232 0.0 0.0 0.00 0.00 0.00 39 993.2
20260504000548 58 231 0.0 0.0 0.00 0.00 0.00 37 993.1
20260504000048 58 232 0.0 0.0 0.00 0.00 0.00 37 993.1
20260503235549 58 232 0.0 0.0 0.00 0.00 0.00 36 993.0
20260503235047 59 231 0.0 0.0 0.00 0.00 0.00 35 992.9
20260503234548 59 231 0.0 0.0 0.00 0.00 0.00 35 992.8
20260503234048 59 231 0.0 0.0 0.00 0.00 0.00 34 992.9
20260503233549 60 231 0.0 0.0 0.00 0.00 0.00 33 992.9
20260503233049 60 231 0.0 0.0 0.00 0.00 0.00 33 992.9
20260503232547 60 231 0.0 0.0 0.00 0.00 0.00 32 992.8
20260503232049 60 232 0.0 0.0 0.00 0.00 0.00 33 992.7
20260503231549 61 231 0.0 0.0 0.00 0.00 0.00 32 992.7
20260503231049 61 231 0.0 0.0 0.00 0.00 0.00 32 992.7
20260503230549 61 231 0.0 0.0 0.00 0.00 0.00 33 992.7
20260503230048 61 231 0.0 0.0 0.00 0.00 0.00 31 992.7
20260503225548 62 231 0.0 1.0 0.00 0.00 0.00 30 992.7
20260503225049 62 231 0.0 1.0 0.00 0.00 0.00 31 992.6
20260503224549 62 231 0.0 1.0 0.00 0.00 0.00 31 992.6
20260503224047 62 231 0.0 0.0 0.00 0.00 0.00 32 992.5
20260503223548 62 231 0.0 0.0 0.00 0.00 0.00 31 992.5
20260503223049 63 231 0.0 0.0 0.00 0.00 0.00 30 992.5
20260503222544 63 238 0.0 1.0 0.00 0.00 0.00 31 992.6
20260503221544 63 237 0.0 1.0 0.00 0.00 0.00 30 992.7
20260503221043 63 237 0.0 1.0 0.00 0.00 0.00 31 992.8
20260503220542 63 237 0.0 0.0 0.00 0.00 0.00 32 992.8
20260503220039 63 233 0.0 0.0 0.00 0.00 0.00 30 992.8
20260503215539 63 233 0.0 1.0 0.00 0.00 0.00 32 992.7
20260503215039 64 233 0.0 1.0 0.00 0.00 0.00 30 992.7
20260503214541 64 241 0.0 1.0 0.00 0.00 0.00 31 992.7
20260503213537 64 241 0.0 1.0 0.00 0.00 0.00 31 992.8
20260503213039 64 241 0.0 1.0 0.00 0.00 0.00 31 992.8
20260503212533 64 241 0.0 1.0 0.00 0.00 0.00 30 992.8
20260503212027 64 236 0.0 1.0 0.00 0.00 0.00 30 992.8
20260503211522 64 236 0.0 1.0 0.00 0.00 0.00 29 992.8
20260503211016 64 186 0.0 0.0 0.00 0.00 0.00 29 992.8
20260503210004 64 171 0.0 2.0 0.00 0.00 0.00 29 992.8
20260503205456 64 172 0.0 1.0 0.00 0.00 0.00 30 992.8
20260503204950 64 172 0.0 1.0 0.00 0.00 0.00 31 992.8
20260503204446 64 257 0.0 1.0 0.00 0.00 0.00 30 992.7
20260503203938 63 257 0.0 1.0 0.00 0.00 0.00 32 992.8
20260503203433 63 257 0.0 1.0 0.00 0.00 0.00 32 992.9
20260503202927 64 265 0.0 1.0 0.00 0.00 0.00 32 992.8
20260503202420 64 250 0.0 3.0 0.00 0.00 0.00 30 993.0
20260503201410 64 239 0.0 1.0 0.00 0.00 0.00 29 992.9
20260503200902 64 240 0.0 2.0 0.00 0.00 0.00 29 993.1
20260503200357 64 240 0.0 2.0 0.00 0.00 0.00 32 993.1
20260503195851 64 242 0.0 0.0 0.00 0.00 0.00 31 993.2
20260503195344 64 243 0.0 1.0 0.00 0.00 0.00 31 993.2
20260503194338 64 234 0.0 1.0 0.00 0.00 0.00 30 993.5
20260503193833 64 172 0.0 0.0 0.00 0.00 0.00 29 993.7
20260503193332 64 171 0.0 0.0 0.00 0.00 0.00 31 993.6
20260503191803 63 251 0.0 1.0 0.00 0.00 0.00 30 993.9
20260503191257 63 249 0.0 1.0 0.00 0.00 0.00 32 994.0
20260503190750 63 247 0.0 1.0 0.00 0.00 0.00 31 994.1
20260503190245 63 238 0.0 2.0 0.00 0.00 0.00 31 994.1
20260503185739 63 237 0.0 2.0 0.00 0.00 0.00 30 994.1
20260503185232 63 241 0.0 2.0 0.00 0.00 0.00 29 994.1
20260503184727 64 243 0.0 2.0 0.00 0.00 0.00 30 994.2
20260503184221 63 245 0.0 1.0 0.00 0.00 0.00 32 994.3
20260503183715 63 245 0.0 1.0 0.00 0.00 0.00 32 994.4
20260503183209 62 245 0.0 1.0 0.00 0.00 0.00 33 994.4
20260503182703 62 245 0.0 1.0 0.00 0.00 0.00 33 994.5
20260503181651 62 226 0.0 3.0 0.00 0.00 0.00 32 994.4
20260503181145 62 255 0.0 1.0 0.00 0.00 0.00 34 994.4
20260503180640 62 255 0.0 1.0 0.00 0.00 0.00 32 994.6
20260503180132 62 235 0.0 0.0 0.00 0.00 0.00 34 994.6
20260503175627 62 235 0.0 1.0 0.00 0.00 0.00 35 994.7
20260503174614 61 235 0.0 1.0 0.00 0.00 0.00 36 994.7
20260503174109 60 235 0.0 1.0 0.00 0.00 0.00 33 994.8
20260503173604 60 236 0.0 1.0 0.00 0.00 0.00 34 995.0
20260503173057 59 234 0.0 3.0 0.00 0.00 0.00 35 995.0
20260503172551 60 262 0.0 3.0 0.00 0.00 0.00 37 995.0
20260503172044 60 172 0.0 3.0 0.00 0.00 0.00 36 995.0
20260503171540 59 238 0.0 1.0 0.00 0.00 0.00 37 995.0
20260503170527 58 255 0.0 2.0 0.00 0.00 0.00 36 995.0
20260503150953 53 239 0.0 3.0 0.00 0.00 0.00 46 996.3
20260503150453 53 222 0.0 3.0 0.00 0.00 0.00 45 996.3
20260503130446 47 240 0.0 1.0 0.00 0.00 0.00 60 996.7